Regional Weather Roundup
Issued by NWS

Home | Current Version | Previous Version | Text Only | Print | Product List | Glossary On
Versions: 1 2 3 4 5 6 7 8 9 10 11 12 13 14 15 16 17 18 19 20 21 22 23 24 25 26 27 28 29 30 31 32 33 34 35 36 37 38 39 40 41 42 43 44 45 46 47 48 49 50
000
ASUS45 KTFX 011110
RWRMT
MONTANA REGIONAL WEATHER ROUNDUP
NATIONAL WEATHER SERVICE GREAT FALLS MT
500 AM MDT SUN MAY 01 2016

NOTE: "FAIR" INDICATES FEW OR NO CLOUDS BELOW 12000 FEET WITH NO
SIGNIFICANT WEATHER AND/OR OBSTRUCTIONS TO VISIBILITY.

MTZ001>007-043-011200-
WEST OF THE DIVIDE

CITY           SKY/WX    TMP DP  RH WIND       PRES   REMARKS
KALISPELL      CLEAR     36  34  92 NW3       30.29R
MISSOULA       PTCLDY    41  37  86 W5        30.29R
BUTTE          CLEAR     31  27  85 S5        30.30S
MULLAN PASS    CLEAR     36  29  75 SE6       30.28R WCI  31
ANACONDA         N/A     34  30  86 SW3       30.30S
DEER LODGE       N/A     32  28  86 W5        30.31S
EUREKA           N/A     32  28  86 CALM      30.34S
HAMILTON         N/A     41  34  75 E3        30.26R
LIBBY            N/A     34  32  93 CALM      30.32R
$$

MTZ008-052>055-011200-
SOUTHWEST MONTANA

CITY           SKY/WX    TMP DP  RH WIND       PRES   REMARKS
BOZEMAN        CLEAR     32  28  85 W3        30.30S
DILLON         CLEAR     33  28  81 CALM      30.26S
ENNIS          CLEAR     28  25  86 VRB5      30.33S
THREE FORKS      N/A     33  33 100 CALM      30.26S
$$

MTZ009-010-012-014-046-048-049-054-011200-
EAST SLOPES AND CENTRAL MONTANA

CITY           SKY/WX    TMP DP  RH WIND       PRES   REMARKS
CUT BANK       CLEAR     30  29  96 NW8       30.33R WCI  22
GREAT FALLS    CLEAR     32  29  88 S5        30.32S
HELENA         CLEAR     36  32  85 CALM      30.32R
CHOTEAU          N/A     36  34  93 CALM      30.33S
$$

MTZ011-013-016-021-045-047-050-051-011200-
NORTH CENTRAL MONTANA

CITY           SKY/WX    TMP DP  RH WIND       PRES   REMARKS
HAVRE          CLOUDY    35  33  92 SE5       30.33S
LEWISTOWN      CLEAR     34  30  85 SE6       30.34S WCI  29
N BAR RANCH    CLOUDY    36  32  87 CALM      30.37R
CHINOOK          N/A     34  34 100 CALM      30.34S
$$

MTZ017>020-022>027-061-062-011200-
NORTHEAST MONTANA

CITY           SKY/WX    TMP DP  RH WIND       PRES   REMARKS
GLASGOW        CLOUDY    37  29  72 E5        30.33S
JORDAN           N/A     30  28  92 W3        30.33S
SIDNEY         CLEAR     32  27  80 CALM      30.34S
WOLF POINT     CLEAR     31  28  89 CALM      30.35R
PLENTYWOOD       N/A     43  25  49 CALM      30.34S
POPLAR           N/A     32  28  86 NW3       30.36R
SCOBEY           N/A     29  20  69 CALM      30.30S
$$

MTZ028>42-056>058-011200-
SOUTHCENTRAL AND SOUTHEAST MONTANA

CITY           SKY/WX    TMP DP  RH WIND       PRES   REMARKS
BAKER          CLEAR     30  27  88 CALM      30.33R
BILLINGS       CLOUDY    41  33  73 W3        30.32S
LIVINGSTON     CLOUDY    36  30  79 SE6       30.31S WCI  31
MILES CITY     CLEAR     35  32  88 NW5       30.33S
EKALAKA          N/A     33  24  70 SE5       30.26R
FORSYTH          N/A     39  34  81 CALM      30.33S
LAUREL           N/A     35  26  70 W2        30.27S
ROUNDUP          N/A     43  31  63 CALM      30.22S
$$

REGIONAL REPORTS...DAKOTAS

CITY           SKY/WX    TMP DP  RH WIND       PRES   REMARKS
WILLISTON      CLEAR     32  27  81 N5        30.34R
MINOT          CLEAR     36  26  67 W6        30.32S WCI  31
DICKINSON      CLEAR     33  26  75 NW5       30.30S
BEACH            N/A     27  27 100 CALM      30.36S
CROSBY           N/A     32  30  93 CALM      30.37R FOG
WATFORD CITY     N/A     27  27 100 CALM      30.33F
BISMARCK       CLEAR     34  29  82 W6        30.31S WCI  29
GRAND FORKS    CLEAR     29  24  82 NW5       30.29S
FARGO          CLEAR     32  26  78 N3        30.28R
BUFFALO SD       N/A     29  24  82 W5        30.24R
RAPID CITY     CLOUDY    36  30  79 NW13      30.27R WCI  27
$$

REGIONAL REPORTS...WYOMING/IDAHO/WASHINGTON

CITY           SKY/WX    TMP DP  RH WIND       PRES   REMARKS
GILLETTE       PTCLDY    29  26  89 W5        30.31R
SHERIDAN       CLOUDY    38  34  85 SW3       30.32S
BUFFALO WY       N/A    N/A N/A N/A MISG      30.32R
CODY           CLOUDY    37  34  87 N6        30.30S
YELLOWSTONE LA   N/A     29  20  69 CALM      30.29S
IDAHO FALLS    CLOUDY    34  29  82 N7        30.18S WCI  28
SALMON         CLEAR     39  34  81 CALM      30.23S
BOISE          CLEAR     42  35  76 SE3       30.10S
SPOKANE        CLEAR     45  42  89 NE6       30.25R
$$

REGIONAL REPORTS...ALBERTA

CITY           SKY/WX    TMP DP  RH WIND       PRES   REMARKS
EDMONTON       PTCLDY    43  30  61 SW7       30.20S
CALGARY        PTCLDY    36  30  80 S2        30.28S
LETHBRIDGE     CLEAR     32  30  93 SW6       30.30S WCI  26
MEDICINE HAT   CLEAR     36  34  93 W6        30.31S WCI  31
WATERTON GATE    N/A     32  30  93 SW7         N/A  WCI  26
MILK RIVER       N/A     32  30  93 NW6         N/A  WCI  26
$$

REGIONAL REPORTS...SASKATCHEWAN

CITY           SKY/WX    TMP DP  RH WIND       PRES   REMARKS
SWIFT CURRENT  CLEAR     37  32  81 SW12      30.30R WCI  30
REGINA         PTCLDY    30  21  69 SE8       30.33S WCI  23
SASKATOON      PTCLDY    37  28  70 SW8       30.27S WCI  31
CYPRESS HILLS    N/A     41  28  60 SW1         N/A
VAL MARIE        N/A     30  27  86 N1          N/A
ROCKGLEN         N/A     39  25  56 SW6         N/A
$$



USA.gov is the U.S. government's official web portal to all federal, state and local government web resources and services.